This is the latest recevied weather packets stored in our database for station/object W5ADC. If no packets are shown the sender has not sent any weather packets the latest 10 day(s).
| Time | Temp. | Humidity | Pressure | Rain* | Wind** | Luminosity | Snow |
|---|---|---|---|---|---|---|---|
| 1777640014 | 13.33° C | 87% | 1013.4 hPa | 0 mm | - | 18 W/m² | - |
| 1777639711 | 13.33° C | 87% | 1013.4 hPa | 0 mm | - | 14 W/m² | - |
| 1777639409 | 13.33° C | 89% | 1013.4 hPa | 0 mm | - | 11 W/m² | - |
| 1777639109 | 13.33° C | 90% | 1013.1 hPa | 0 mm | - | 17 W/m² | - |
| 1777638806 | 13.33° C | 91% | 1012.8 hPa | 0 mm | - | 10 W/m² | - |
| 1777638501 | 13.33° C | 91% | 1012.6 hPa | 0 mm | - | 9 W/m² | - |
| 1777638198 | 13.33° C | 92% | 1012.3 hPa | 0 mm | - | 10 W/m² | - |
| 1777637894 | 13.33° C | 92% | 1012.2 hPa | 0 mm | - | 7 W/m² | - |
| 1777637590 | 13.33° C | 92% | 1011.9 hPa | 0 mm | - | 6 W/m² | - |
| 1777637288 | 13.33° C | 92% | 1011.9 hPa | 0 mm | - | 7 W/m² | - |
| 1777636984 | 13.33° C | 92% | 1012.1 hPa | 0 mm | - | 6 W/m² | - |
| 1777636680 | 13.33° C | 92% | 1012.1 hPa | 0 mm | - | 5 W/m² | - |
| 1777636377 | 13.33° C | 92% | 1011.6 hPa | 0 mm | - | 4 W/m² | - |
| 1777636076 | 13.33° C | 92% | 1012.1 hPa | 0 mm | - | 2 W/m² | - |
| 1777635773 | 13.33° C | 92% | 1012 hPa | 0 mm | - | 1 W/m² | - |
| 1777635470 | 13.33° C | 92% | 1012 hPa | 0 mm | - | 1 W/m² | - |
| 1777635167 | 13.33° C | 92% | 1011.9 hPa | 0 mm | - | 0 W/m² | - |
| 1777634862 | 13.33° C | 92% | 1011.7 hPa | 0 mm | - | 0 W/m² | - |
| 1777634560 | 13.89° C | 91% | 1011.6 hPa | 0 mm | - | 0 W/m² | - |
| 1777634257 | 13.89° C | 91% | 1011.9 hPa | 0 mm | - | 0 W/m² | - |
| 1777633953 | 13.89° C | 91% | 1012.1 hPa | 0 mm | - | 0 W/m² | - |
| 1777633650 | 13.89° C | 90% | 1012 hPa | 0 mm | - | 0 W/m² | - |
| 1777633349 | 13.89° C | 90% | 1012.1 hPa | 0 mm | - | 0 W/m² | - |
| 1777633046 | 13.89° C | 90% | 1011.9 hPa | 0 mm | - | 0 W/m² | - |
| 1777632742 | 13.89° C | 90% | 1012 hPa | 0 mm | - | 0 W/m² | - |
* Rain latest hour (hover to see other rain measurements)
** Current wind speed in m/s (hover to see current wind gust speed)